Regional Weather Roundup
Issued by NWS

Home | Current Version | Previous Version | Graphics & Text | Print | Product List | Glossary On
Versions: 1 2 3 4 5 6 7 8 9 10 11 12 13 14 15 16 17 18 19 20 21 22 23 24 25 26 27 28 29 30 31 32 33 34 35 36 37 38 39 40 41 42 43 44 45 46 47 48 49 50
000
ASUS43 KIND 200559
RWRIN

WEATHER ROUNDUP FOR INDIANA
NATIONAL WEATHER SERVICE INDIANAPOLIS IN
100 AM EST SAT DEC 20 2014

NOTE: "FAIR" INDICATES FEW OR NO CLOUDS BELOW 12,000 FEET WITH NO
SIGNIFICANT WEATHER AND/OR OBSTRUCTIONS TO VISIBILITY.

* - STATION DOES NOT REPORT WEATHER SUCH AS PRECIPITATION OR FOG.

+ - STATION NOT QUALITY CONTROLLED BY THE NATIONAL WEATHER SERVICE.
    USE DATA WITH CAUTION...ESPECIALLY DEWPOINT AND RELATIVE
    HUMIDITY OBSERVATIONS.

INZ001>003-010>013-019-020-200700-
NORTHWEST INDIANA

CITY           SKY/WX    TMP DP  RH WIND       PRES   REMARKS
KNOX *+        CLOUDY    30  23  75 SW3       30.26R
MONTICELLO +   CLOUDY    29  28  96 CALM      30.27S FOG
VALPARAISO     NOT AVBL

$$

LMZ046-743>745-200700-
SOUTHERN LAKE MICHIGAN

STATION/POSITION TIME  TEMP WIND        PRES
                       AIR  DIR/SP/G
                 (UTC) (F)  (DEG/KT/KT) (MB)

$$

INZ004-005-014>016-021>024-200700-
NORTH CENTRAL INDIANA

CITY           SKY/WX    TMP DP  RH WIND       PRES   REMARKS
GOSHEN         CLOUDY    26  23  88 CALM      30.26S
6HR MIN TEMP:  24; 6HR MAX TEMP:  31;

SOUTH BEND     CLOUDY    31  22  69 CALM      30.26S
6HR MIN TEMP:  31; 6HR MAX TEMP:  32;


$$

INZ006>009-017-018-025>027-200700-
NORTHEAST INDIANA

CITY           SKY/WX    TMP DP  RH WIND       PRES   REMARKS
ANGOLA *+      CLEAR     19  18  93 CALM      30.25R
FORT WAYNE     MOCLDY    24  21  88 CALM      30.26F
6HR MIN TEMP:  24; 6HR MAX TEMP:  30;


$$

INZ028-029-035-036-043>045-051>053-200700-
WEST CENTRAL INDIANA

CITY           SKY/WX    TMP DP  RH WIND       PRES   REMARKS
GREENCASTLE +  CLOUDY    30  25  80 CALM      30.27R HAZE
LAFAYETTE      CLOUDY    28  27  96 CALM      30.28S FOG
6HR MIN TEMP:  28; 6HR MAX TEMP:  29;

TERRE HAUTE    CLOUDY    31  26  82 CALM      30.29R
6HR MIN TEMP:  31; 6HR MAX TEMP:  32;


$$

INZ030>032-037>040-046>048-054>057-064-065-200700-
CENTRAL INDIANA

CITY           SKY/WX    TMP DP  RH WIND       PRES   REMARKS
FRANKFORT +    CLOUDY    29  29 100 CALM      30.28R FOG
INDIANAPOLIS   CLOUDY    29  23  78 S3        30.25S
6HR MIN TEMP:  28; 6HR MAX TEMP:  29;

-EAGLE CREEK   CLOUDY    29  23  78 SE3       30.26R
6HR MIN TEMP:  29; 6HR MAX TEMP:  30;

KOKOMO *+      CLOUDY    28  27  93 SW3       30.26S
MT COMFORT *+  CLOUDY    28  23  80 CALM      30.25S
SHELBYVILLE    CLOUDY    31  25  78 CALM      30.26S
6HR MIN TEMP:  30; 6HR MAX TEMP:  31;


$$

INZ033-034-041-042-049-050-058-059-200700-
EAST CENTRAL INDIANA

CITY           SKY/WX    TMP DP  RH WIND       PRES   REMARKS
MUNCIE         CLOUDY    29  26  89 CALM      30.25S FOG
6HR MIN TEMP:  29; 6HR MAX TEMP:  31;


$$

INZ060-061-067>069-081>083-085>088-200700-
SOUTHWEST INDIANA

CITY           SKY/WX    TMP DP  RH WIND       PRES   REMARKS
EVANSVILLE     CLOUDY    33  24  69 E5        30.30R WCI  29
6HR MIN TEMP:  32; 6HR MAX TEMP:  34;

HUNTINGBURG *+ CLOUDY    30  21  69 E6        30.30R WCI  24
6HR MIN TEMP:  28; 6HR MAX TEMP:  30;


$$

INZ062-063-066-070>080-084-089>092-200700-
SOUTH CENTRAL AND SOUTHEAST INDIANA

CITY           SKY/WX    TMP DP  RH WIND       PRES   REMARKS
BLOOMINGTON    CLOUDY    30  23  75 SE5       30.27R WCI  25
6HR MIN TEMP:  30; 6HR MAX TEMP:  31;


$$



USA.gov is the U.S. government's official web portal to all federal, state and local government web resources and services.